Terug naar catalogus

KUIPER-00289

ActiefCommunicatieLEO
NORAD 68591·PAYLOAD·🇺🇸 United States

Gelanceerd Apr 4, 2026 vanaf Cape Canaveral Space Force Station

Loading…

Volgende Passages (komende 24 uur)

TLE

VersSource: CelesTrak SupGP

Epoch: Sep 14, 2026, 23:00 UTC

1 68591C 26072U   26257.95879630  .00003135  00000+0  41041-3 0  2576
2 68591  51.8971 141.1775 0001106  93.8997 275.8618 14.79927069    13

Volg KUIPER-00289 in realtime met AllMySat

Download on the App Store